Location: Newark
(51.0000°N, 11.4100°E)
Time: 12:18:35
(UTC+00:00)

OTV 5 (USA 277) - Visible Passes

Search period start: 15 October 2019 00:00
Search period end: 25 October 2019 00:00
Orbit: 310 x 324 km, 54.5° (Epoch: 08 October)

Date Brightness Start Highest point End Pass type
(mag) Time Alt. Az. Time Alt. Az. Time Alt. Az.
15 Oct ? 03:53:05 45° NNW 03:53:30 51° NNE 03:56:13 10° E visible
16 Oct ? 04:07:19 41° WNW 04:08:08 83° NNE 04:10:52 10° ESE visible
17 Oct ? 02:50:44 12° E 02:50:44 12° E 02:50:56 10° E visible
17 Oct ? 04:21:37 30° W 04:22:40 50° SSW 04:25:20 10° SE visible
18 Oct ? 03:05:07 15° E 03:05:07 15° E 03:05:40 10° ESE visible
18 Oct ? 04:36:01 19° WSW 04:37:05 25° SW 04:39:24 10° SSE visible
19 Oct ? 03:19:36 16° ESE 03:19:36 16° ESE 03:20:15 10° ESE visible
19 Oct ? 04:50:31 11° WSW 04:51:24 12° SW 04:52:36 10° SSW visible
20 Oct ? 03:34:13 12° SSE 03:34:13 12° SSE 03:34:33 10° SE visible
